Fort Campbell, KY

1:53 AM CDT on October 17, 2017 (GMT -0500)
Campbell Army Air Field

Weather History for KHOP - January, 2013

Change the Weather History Date:

Sunday, January 6, 2013

  Actual Average Record
Temperature  
Mean Temperature 34 °F -  
Max Temperature 44 °F 44 °F 73 °F (1998)
Min Temperature 24 °F 28 °F 2 °F (2014)
Degree Days  
Heating Degree Days 30    
Moisture  
Dew Point 31 °F    
Average Humidity 79    
Maximum Humidity 95    
Minimum Humidity 58    
Precipitation  
Precipitation 0.00 in - - ()
Sea Level Pressure  
Sea Level Pressure 30.27 in    
Wind  
Wind Speed 9 mph (West)    
Max Wind Speed 17 mph    
Max Gust Speed 24 mph    
Visibility 10 miles    
Events      
Averages and records for this station are not official NWS values.
T = Trace of Precipitation, MM = Missing Value Source: NWS Daily Summary

Daily Weather History Graph

Daily Weather History Graph

Search for Another Location

Airport or City:

Trip Planner

Search our weather history database for the weather conditions in past years. The results will help you decide how hot, cold, wet, or windy it might be!

Date:

Astronomy

Jan. 06, 2013 Rise Set
Actual Time 7:02 AM CST 4:49 PM CST
Civil Twilight 6:34 AM CST 5:17 PM CST
Nautical Twilight 6:02 AM CST 5:50 PM CST
Astronomical Twilight 5:30 AM CST 6:21 PM CST
Moon 1:20 AM CST (1/6) 12:13 PM CST (1/6)
Length of Visible Light 10h 43m
Length of Day
9h 46m
Waning Crescent, 33% of the Moon is Illuminated
Jan 6
Waning Crescent
Jan 11
New
Jan 18
First Quarter
Jan 26
Full
Feb 3
Last Quarter

Hourly Weather History & Observations

Time (CST) Temp. Windchill Dew Point Humidity Pressure Visibility Wind Dir Wind Speed Gust Speed Precip Events Conditions
12:55 AM 33.1 °F 26.9 °F 26.4 °F 77% 30.23 in 10.0 mi SW 6.9 mph - N/A   Scattered Clouds
1:55 AM 33.8 °F 27.0 °F 29.3 °F 84% 30.22 in 10.0 mi SSW 8.1 mph - N/A   Clear
2:55 AM 35.1 °F 27.9 °F 31.6 °F 87% 30.22 in 10.0 mi SW 9.2 mph - N/A   Overcast
3:55 AM 37.6 °F 31.0 °F 33.1 °F 84% 30.19 in 10.0 mi SW 9.2 mph - N/A   Overcast
4:55 AM 37.9 °F 30.9 °F 33.6 °F 84% 30.19 in 10.0 mi SW 10.4 mph - N/A   Overcast
5:55 AM 38.1 °F 31.2 °F 34.9 °F 88% 30.19 in 10.0 mi SSW 10.4 mph - N/A   Overcast
6:55 AM 36.5 °F 30.3 °F 34.7 °F 93% 30.20 in 10.0 mi SSW 8.1 mph - N/A   Partly Cloudy
7:55 AM 37.0 °F 30.4 °F 35.6 °F 95% 30.21 in 10.0 mi SSW 9.2 mph - N/A   Clear
8:55 AM 40.1 °F 32.7 °F 36.9 °F 88% 30.22 in 10.0 mi SW 12.7 mph - N/A   Clear
9:32 AM 41.0 °F 33.5 °F 35.6 °F 81% 30.23 in 10.0 mi WSW 13.8 mph - N/A   Mostly Cloudy
9:49 AM 41.0 °F 32.8 °F 35.6 °F 81% 30.23 in 10.0 mi WSW 16.1 mph - N/A   Scattered Clouds
9:51 AM 41.0 °F 32.5 °F 35.6 °F 81% 30.23 in 10.0 mi WSW 17.3 mph 24.2 mph N/A   Mostly Cloudy
9:55 AM 41.2 °F 33.7 °F 36.0 °F 82% 30.23 in 10.0 mi WSW 13.8 mph 24.2 mph N/A   Mostly Cloudy
10:18 AM 42.8 °F 35.8 °F 35.6 °F 76% 30.23 in 10.0 mi West 13.8 mph - N/A   Overcast
10:55 AM 42.4 °F 35.3 °F 33.4 °F 70% 30.21 in 10.0 mi West 13.8 mph - N/A   Mostly Cloudy
10:58 AM 42.8 °F 36.2 °F 33.8 °F 70% 30.21 in 10.0 mi WSW 12.7 mph - N/A   Scattered Clouds
11:55 AM 43.5 °F 37.9 °F 32.5 °F 65% 30.20 in 10.0 mi West 10.4 mph - N/A   Partly Cloudy
12:55 PM 44.2 °F 38.0 °F 30.4 °F 58% 30.19 in 10.0 mi West 12.7 mph - N/A   Mostly Cloudy
1:55 PM 43.7 °F 38.1 °F 31.3 °F 62% 30.21 in 10.0 mi WNW 10.4 mph - N/A   Overcast
2:55 PM 41.2 °F 34.5 °F 31.5 °F 68% 30.25 in 10.0 mi NNW 11.5 mph 19.6 mph N/A   Mostly Cloudy
3:55 PM 38.1 °F 30.2 °F 29.1 °F 70% 30.29 in 10.0 mi NW 12.7 mph - N/A   Partly Cloudy
4:55 PM 35.1 °F 28.6 °F 27.7 °F 74% 30.33 in 10.0 mi NNW 8.1 mph - N/A   Clear
5:55 PM 32.0 °F 26.4 °F 26.6 °F 80% 30.36 in 10.0 mi NW 5.8 mph - N/A   Clear
6:55 PM 30.9 °F 27.5 °F 24.4 °F 77% 30.38 in 10.0 mi NNW 3.5 mph - N/A   Clear
7:55 PM 28.9 °F 21.9 °F 23.7 °F 81% 30.39 in 10.0 mi North 6.9 mph - N/A   Clear
8:55 PM 28.0 °F - 23.2 °F 82% 30.40 in 10.0 mi Calm Calm - N/A   Clear
9:55 PM 28.0 °F - 23.5 °F 83% 30.41 in 10.0 mi Calm Calm - N/A   Clear
10:55 PM 25.5 °F - 22.5 °F 88% 30.42 in 10.0 mi Calm Calm - N/A   Clear
11:55 PM 24.8 °F 20.5 °F 23.4 °F 94% 30.42 in 10.0 mi NNE 3.5 mph - N/A   Clear